Regional Weather Roundup
Issued by NWS

Home | Current Version | Previous Version | Graphics & Text | Print | Product List | Glossary Off
Versions: 1 2 3 4 5 6 7 8 9 10 11 12 13 14 15 16 17 18 19 20 21 22 23 24 25 26 27 28 29 30 31 32 33 34 35 36 37 38 39 40 41 42 43 44 45 46 47 48 49 50

000
ASUS43 KMKX 172300
RWRWI

WISCONSIN REGIONAL WEATHER ROUNDUP
NATIONAL WEATHER SERVICE MILWAUKEE/SULLIVAN WI
600 PM CDT THU AUG 17 2017

NOTE: "FAIR" INDICATES FEW OR NO CLOUDS BELOW 12,000 FEET WITH NO
SIGNIFICANT WEATHER AND/OR OBSTRUCTIONS TO VISIBILITY.

WIZ001-002-006>008-014>016-023>028-180000-
NORTHWEST WISCONSIN

CITY           SKY/WX    TMP DP  RH WIND       PRES   REMARKS
SUPERIOR ARPT    N/A     65  61  88 N10G16    29.72R
ASHLAND        CLOUDY    63  61  93 NW6       29.68R
HAYWARD        CLOUDY    64  60  87 VRB6      29.70R
SIREN          CLOUDY    64  61  92 NW9       29.74R
CUMBERLAND     CLOUDY    61  59  94 NW17G24   29.72R FOG
RICE LAKE      CLOUDY    63  61  93 W8G18     29.73R FOG
CHETEK         DRIZZLE   63  62  97 NW9       29.70R
LADYSMITH      CLOUDY    66  61  83 NW18      29.68R
EAU CLAIRE     NOT AVBL
MENOMONIE      CLOUDY    68  61  78 NW20G29   29.71R
NEW RICHMOND   CLOUDY    65  62  88 N9        29.76R
OSCEOLA        CLOUDY    68  67  98 NW9       29.78R
$$

WIZ003>005-009-010-017-018-180000-
NORTH CENTRAL WISCONSIN

CITY           SKY/WX    TMP DP  RH WIND       PRES   REMARKS
MANITOWISH WTR CLOUDY    63  63 100 NW14G20   29.61R
ARBOR VITAE    PTSUNNY   69  65  87 NW13G18   29.59R
WOODRUFF       PTSUNNY   69  65  87 NW13G18   29.59R
RHINELANDER    CLOUDY    69  66  90 NW7       29.59R
EAGLE RIVER    CLOUDY    67  66  97 NW6       29.57S
LAND O LAKES   CLOUDY    69  65  88 NW3       29.59S
PHILLIPS       CLOUDY    63  63 100 NW9       29.63R
TOMAHAWK         N/A     67  65  91 W10G17    29.60R FOG
MEDFORD        CLOUDY    64  62  90 W15G22    29.64R
MERRILL        LGT RAIN  70  68  94 NW8G17    29.58R
$$

WIZ029-030-035-036-043>047-180000-
CENTRAL WISCONSIN

CITY           SKY/WX    TMP DP  RH WIND       PRES   REMARKS
WAUSAU         CLOUDY    70  65  84 W20G31    29.58R
MOSINEE        LGT RAIN  66  66 100 W16G23    29.62R FOG
MARSHFIELD     CLOUDY    65  62  90 W16G22    29.65R
STEVENS POINT  CLOUDY    67  67  99 W15G22    29.61R
WAUPACA        CLOUDY    73  69  86 SW15G24   29.59S FOG
WAUTOMA        CLOUDY    70  66  88 W20       29.63R FOG
WISC RAPIDS    CLOUDY    67  64  90 W15G25    29.66R
CAMP DOUGLAS   CLOUDY    66  63  88 W18G26    29.68R
$$

WIZ011>013-019>022-031-037>040-048>050-180000-
NORTHEAST WISCONSIN

CITY           SKY/WX    TMP DP  RH WIND       PRES   REMARKS
ANTIGO         CLOUDY    70  67  90 W12G21    29.56S
SHAWANO        CLOUDY    75  66  73 SW13      29.55R
OCONTO         CLOUDY    73  66  78 SW12      29.53F
STURGEON BAY   PTSUNNY   74  67  78 SW10      29.55F
GREEN BAY      LGT RAIN  74  67  78 SW14G25   29.56S
MANITOWOC      NOT AVBL
APPLETON       PTSUNNY   72  68  88 SW10      29.58S
CLINTONVILLE   LGT RAIN  72  64  78 SW10G18   29.57R
OSHKOSH        PTSUNNY   75  65  70 SW13G21   29.60R
$$

WIZ032>034-041-042-053>061-180000-
SOUTHWEST WISCONSIN

CITY           SKY/WX    TMP DP  RH WIND       PRES   REMARKS
LA CROSSE      CLOUDY    73  62  68 NW15      29.71R
SPARTA         CLOUDY    67  61  80 W13G24    29.71R
VIROQUA        CLOUDY    67  63  86 W7G14     29.74R
BOSCOBEL       CLOUDY    72  65  78 W8G18     29.74R
PRAIRIE DU CHI CLOUDY    74  62  65 W8G22     29.74R
PLATTEVILLE    CLOUDY    72  67  86 W14G25    29.75S
$$

WIZ056-057-062-063-064-067-068-180000-
SOUTH CENTRAL WISCONSIN

CITY           SKY/WX    TMP DP  RH WIND       PRES   REMARKS
REEDSBURG      CLOUDY    72  65  79 W10       29.68R
BARABOO/DELLS  CLOUDY    71  62  72 W14G20    29.68R
LONE ROCK      NOT AVBL
MINERAL POINT  CLOUDY    70  68  94 W17G31    29.74R FOG
MADISON        CLOUDY    71  65  81 VRB7G16   29.68R
MIDDLETON      CLOUDY    71  66  82 W13G23    29.70S
WATERTOWN      CLOUDY    72  66  81 W14G20    29.67S
MONROE         RAIN      72  63  73 W17G24    29.73S
JANESVILLE     CLOUDY    75  64  69 W13       29.71R
$$

WIZ051-052-058>065-066-070>072-180000-
SOUTHEAST WISCONSIN

CITY           SKY/WX    TMP DP  RH WIND       PRES   REMARKS
MILWAUKEE      PTSUNNY   77  66  68 W12G21    29.67S
WAUKESHA       CLOUDY    72  64  78 SW16G22   29.69R
MILWAUKEE/TIMM NOT AVBL
RACINE         PTSUNNY   73  69  87 W12       29.70R
KENOSHA        PTSUNNY   76  66  71 W13       29.69R
FOND DU LAC    PTSUNNY   75  64  68 SW14G23   29.62S
SHEBOYGAN      PTSUNNY   75  68  78 SW10G23   29.61F
WEST BEND      PTSUNNY   72  68  88 W16G22    29.64F
JUNEAU         CLOUDY    73  65  75 SW24G31   29.67S
$$

LSZ147-162-180000-
LAKE SUPERIOR

STATION/POSITION TIME  TEMP    WIND        PRES    WAVE
                       AIR SEA DIR/SP/G            HT/PER
                 (UTC) (F)     (DEG/KT/KT) (MB)    (FT/S)
W MID LAKE BUOY  2150   59 60  360/ 19/ 23 1001.4R   5/ 5
DEVILS ISLAND    2200   61     300/  7/  8 1003.9R
SAXON HARBOR     2240   62     360/ 10/ 17 1004.4R
$$

LMZ867-665-643>646-180000-
LAKE MICHIGAN

STATION/POSITION TIME  TEMP    WIND        PRES    WAVE
                       AIR SEA DIR/SP/G            HT/PER
                 (UTC) (F)     (DEG/KT/KT) (MB)    (FT/S)
S GREEN BAY BUOY 2230   73 72  220/ 14/ 17 1000.2F
N MID LAKE BUOY  2150   69 68  180/ 19/ 23 1001.1F   4/ 6
NORTHPORT PIER   2240   71     150/  6/  8 1000.7S
KEWAUNEE LAKESHO 2230   76     210/  9/ 16 1000.6F
SHEBOYGAN LAKESH 2200   76     230/ 17/ 21 1002.2F
PORT WASHINGTON  2240   75     250/  9/ 14 1004.4R
ATWATER BUOY     2109   76 71  230/ 19/ 23 1004.5F
MILWAUKEE LAKESH 2240   73     260/ 14/ 21   N/A
S MID LAKE BUOY  2150   75 71  260/ 16/ 19 1004.9F   2/ 5
KENOSHA   LAKESH 2200   80     240/ 14/ 19 1004.7
$$

TC  - TEMPERATURE IN CELSIUS
VSB - VISIBILITY IN STATUTE MILES
WCI - WIND CHILL INDEX
HX  - HEAT INDEX





USA.gov is the U.S. government's official web portal to all federal, state and local government web resources and services.